Simultaneous Nadir Overpasses (SNOs) Predictions

Prediction of SNOs between LANDSAT-8 and NOAA-19 Satellite Orbit:

Table of predicted SNOs for the next 14.0 days since TLE Epoch: 10/9/2021
Index Date (LANDSAT-8) Time (LANDSAT-8) Lat,Lon (LANDSAT-8) SZA (LANDSAT-8 ) Date (NOAA-19) Time (NOAA-19) Lat,Lon (NOAA-19) SZA (NOAA-19 ) Distance(km) Time Diff (sec)
1 10/11/2021 03:18:48 -80.52, -17.24 90.69 10/11/2021 03:17:38 -80.66, -19.34 90.79 41.24 70
2 10/11/2021 04:08:13 80.56, 150.81 89.40 10/11/2021 04:08:35 80.54, 150.92 89.41 2.94 22
3 10/13/2021 09:41:58 -80.55,-112.67 89.76 10/13/2021 09:41:37 -80.56,-112.74 89.77 1.56 21
4 10/15/2021 15:15:42 80.55, -16.08 91.08 10/15/2021 15:14:48 80.56, -15.89 91.08 3.45 54
5 10/15/2021 16:05:09 -80.55, 151.54 88.91 10/15/2021 16:05:43 -80.56, 151.38 88.91 3.04 34
6 10/17/2021 21:38:53 80.55,-111.91 91.91 10/17/2021 21:38:54 80.56,-111.88 91.92 1.07 1
7 10/20/2021 03:12:37 -80.57, -15.10 87.24 10/20/2021 03:11:55 -80.56, -14.98 87.26 2.89 42
8 10/20/2021 04:02:04 80.55, 152.23 92.72 10/20/2021 04:03:00 80.56, 152.10 92.75 3.02 56
9 10/22/2021 08:46:23 80.50, 80.71 93.43 10/22/2021 08:45:10 80.63, 80.07 93.45 18.04 73



Historial Predications of SNOs between LANDSAT-8 and NOAA-19
